Retour au catalogue

STARLINK-34310

ActifCommunicationsVLEO
NORAD 64210·PAYLOAD·🇺🇸 United States

Lancé May 31, 2025 depuis Vandenberg Space Force Base

Loading…

Prochains Passages (prochaines 24 heures)

TLE

FraisSource: CelesTrak SupGP

Époque: Sep 15, 2026, 04:01 UTC

1 64210C 25117H   26258.16784722 -.00054343  00000+0 -16057-2 0  2588
2 64210  53.1574 238.4600 0001389  90.5331 149.0402 15.34415074    10

Suivez STARLINK-34310 en temps réel avec AllMySat

Download on the App Store